Regional Weather Roundup
Issued by NWS

Home | Current Version | Previous Version | Text Only | Print | Product List | Glossary Off
Versions: 1 2 3 4 5 6 7 8 9 10 11 12 13 14 15 16 17 18 19 20 21 22 23 24 25 26 27 28 29 30 31 32 33 34 35 36 37 38 39 40 41 42 43 44 45 46 47 48 49 50

000
ASUS43 KLOT 131703
RWRIL

ILLINOIS REGIONAL WEATHER ROUNDUP
NATIONAL WEATHER SERVICE CHICAGO/ROMEOVILLE IL
1100 AM CST WED DEC 13 2017

NOTE: "FAIR" INDICATES FEW OR NO CLOUDS BELOW 12,000 FEET WITH NO
SIGNIFICANT WEATHER AND/OR OBSTRUCTIONS TO VISIBILITY.

* THESE STATIONS ARE NOT UNDER NWS QUALITY CONTROL. THEY ALSO MAY NOT
  REPORT WEATHER SUCH AS PRECIPITATION OR FOG.

ILZ001-002-007-009-015-016-024-131800-
NORTHWEST ILLINOIS

CITY           SKY/WX    TMP DP  RH WIND       PRES   REMARKS
MOLINE         PTSUNNY   44  27  51 W22G30    29.36F
STERLING*      MOSUNNY   36  26  67 SW13      29.34F WCI  27
SAVANNA*       CLOUDY    37  27  67 W13       29.33F WCI  29
$$

ILZ003-004-008-010-011-017-018-131800-
NORTH CENTRAL ILLINOIS

CITY           SKY/WX    TMP DP  RH WIND       PRES   REMARKS
ROCKFORD       CLOUDY    32  23  69 SW12      29.34F WCI  23
FREEPORT*      CLOUDY    32  25  77 SW15      29.32F WCI  21
ROCHELLE*      CLOUDY    33  26  75 SW17G23   29.34F WCI  22
DE KALB*       CLOUDY    32  25  73 SW20      29.35F WCI  21
PERU*          CLOUDY    35  22  60 SW18      29.38F WCI  24
$$

ILZ005-006-012>014-019>023-131800-
NORTHEAST ILLINOIS

CITY           SKY/WX    TMP DP  RH WIND       PRES   REMARKS
CHICAGO-OHARE  CLOUDY    33  20  58 S14G23    29.36F WCI  23
CHICAGO-MIDWAY CLOUDY    34  19  54 S16G25    29.38F WCI  24
AURORA         CLOUDY    34  23  64 S14G22    29.37F WCI  25
LANSING*       MOSUNNY   33  19  57 S22G29    29.41F WCI  20
JOLIET*        CLOUDY    37  23  57 SW12G21   29.39F WCI  29
WAUKEGAN       CLOUDY    31  20  63 S13G20    29.36F WCI  21
DUPAGE AIRPORT CLOUDY    32  23  69 S14       29.36F WCI  22
WHEELING       CLOUDY    33  20  58 S15       29.37F WCI  23
NORTHERLY ISL    N/A     33  17  52 S14         N/A  WCI  23
$$

LMZ740>746-131800-
SOUTHERN LAKE MICHIGAN

STATION/POSITION SKY/WX   TEMP    WIND        PRES    VSBY  WAVE
                          AIR SEA DIR/SP/G                  HT/PER
                          (F)     (DEG/KT/KT) (MB)    (MI)  (FT/S)
HARRISON CRIB              33     190/ 31/ 33   N/A
BURNHAM HARBOR             33     190/ 11/ 21   N/A
CALUMET HARBOR             32     170/ 17/ 32  995.7F
BURNS HARBOR               31     170/ 15/ 27  996.6F
MICHIGAN CITY              29     160/ 19/ 24   N/A
$$

ILZ025>027-034>036-040-047-049-050-058-095>099-131800-
WEST-CENTRAL ILLINOIS

CITY           SKY/WX    TMP DP  RH WIND       PRES   REMARKS
QUINCY         PTSUNNY   44  26  49 W16G24    29.53F
GALESBURG*     CLOUDY    42  29  60 SW14G21   29.42F
MACOMB*        PTSUNNY   42  27  57 W21       29.49F
PITTSFIELD*    MOSUNNY   45  28  49 W16       29.55F
$$

ILZ028>032-037-038-041>044-048-051>054-059>061-131800-
CENTRAL ILLINOIS

CITY           SKY/WX    TMP DP  RH WIND       PRES   REMARKS
BLOOMINGTON    CLOUDY    38  22  52 SW25G32   29.42F WCI  27
DECATUR        MOSUNNY   41  22  46 SW30G38   29.51F
PEORIA         CLOUDY    39  23  52 SW14G24   29.44F WCI  31
LACON*         CLOUDY    37  23  56 SW16G24   29.40F WCI  27
LINCOLN*       CLOUDY    42  25  50 SW14G26   29.47F
SPRINGFIELD    CLOUDY    44  24  45 SW17G28   29.52F
TAYLORVILLE    SUNNY     42  22  44 SW25G32   29.55F
$$

ILZ033-039-045-046-055>057-062-063-131800-
EAST-CENTRAL ILLINOIS

CITY           SKY/WX    TMP DP  RH WIND       PRES   REMARKS
CHAMPAIGN      CLOUDY    41  21  44 S29G41    29.49F
DANVILLE*      CLOUDY    37  19  47 S26G32    29.45F WCI  25
MATTOON        MOSUNNY   39  22  50 S22G33    29.54F WCI  29
$$

ILZ079-100>102-131800-
SOUTHWEST ILLINOIS

CITY           SKY/WX    TMP DP  RH WIND       PRES   REMARKS
ALTON          PTSUNNY   46  25  42 S21       29.59F
BELLEVILLE     SUNNY     47  22  36 SW10G22   29.62F
CAHOKIA*       SUNNY     49  20  31 SW13G21   29.61F
SPARTA*        SUNNY     44  24  44 SW16G24   29.66F
$$

ILZ064>066-069>071-074>076-080>082-084>086-088>090-092>094-131800-
SOUTH-CENTRAL ILLINOIS

CITY           SKY/WX    TMP DP  RH WIND       PRES   REMARKS
CARBONDALE     SUNNY     45  21  38 SW25G38   29.66F
CAIRO*         SUNNY     45  20  37 S21G29    29.79F
EFFINGHAM*     SUNNY     43  23  45 S21G26    29.61F
MARION         SUNNY     45  19  36 S25G36    29.69F
MT. VERNON     SUNNY     44  21  40 SW24      29.65F
CENTRALIA*     SUNNY     44  24  44 SW18G28   29.62F
SALEM*         SUNNY     44  20  38 SW24G32   29.62F
METROPOLIS*    MOSUNNY   42  19  38 S16G24    29.78F
$$

ILZ067-068-072-073-078-083-087-091-131800-
SOUTHEAST ILLINOIS

CITY           SKY/WX    TMP DP  RH WIND       PRES   REMARKS
LAWRENCEVILLE  CLOUDY    40  18  41 S24       29.64F
FLORA*         SUNNY     44  22  41 SW25G39   29.62F
HARRISBURG*    MOSUNNY   43  19  39 S24G33    29.71F
ROBINSON*      CLOUDY    37  18  45 S21G35    29.61F WCI  27
CARMI*         MOSUNNY   41  19  41 S24G36    29.67F
$$

ABBREVIATIONS USED IN REMARKS
   TC - TEMPERATURE IN CELSIUS
  WCI - WIND CHILL INDEX
   HX - HEAT INDEX
  VSB - VISIBILITY
$$





USA.gov is the U.S. government's official web portal to all federal, state and local government web resources and services.